• en France
  • Liste des pays
  • À 7 jours
  • Température de l'eau
  • Carte satellitaire
  • Carte météo
  • Widgets météo
  • user-avatar
    Se connecter

    Météo par heure à Bouake

    Ce jour, 13 Décembre, Mercredi

    Heure Température Précipitation Vent Pression Humidité
    00:00 +26°C° 0 mm 1 m/s 730 mmHg 55%
    01:00 +25°C° 0 mm 1 m/s 729 mmHg 57%
    02:00 +25°C° 0 mm 1 m/s 729 mmHg 59%
    03:00 +24°C° 0 mm 1 m/s 729 mmHg 61%
    04:00 +24°C° 0 mm 1 m/s 729 mmHg 64%
    05:00 +23°C° 0 mm 1 m/s 729 mmHg 66%
    06:00 +23°C° 0 mm 1 m/s 729 mmHg 72%
    07:00 +25°C° 0 mm 1 m/s 729 mmHg 65%
    08:00 +27°C° 0 mm 1 m/s 730 mmHg 59%
    09:00 +29°C° 0 mm 2 m/s 730 mmHg 53%
    10:00 +31°C° 0 mm 1 m/s 730 mmHg 45%
    11:00 +34°C° 0 mm 1 m/s 730 mmHg 37%
    12:00 +36°C° 0 mm 1 m/s 729 mmHg 28%
    13:00 +37°C° 0 mm 1 m/s 729 mmHg 27%
    14:00 +37°C° 0 mm 1 m/s 728 mmHg 26%
    15:00 +39°C° 0 mm 2 m/s 728 mmHg 25%
    16:00 +37°C° 0 mm 2 m/s 728 mmHg 29%
    17:00 +35°C° 0 mm 2 m/s 728 mmHg 33%
    18:00 +34°C° 0 mm 2 m/s 728 mmHg 37%
    19:00 +32°C° 0 mm 2 m/s 728 mmHg 40%
    20:00 +31°C° 0 mm 1 m/s 729 mmHg 44%
    21:00 +30°C° 0 mm 1 m/s 729 mmHg 47%
    22:00 +29°C° 0 mm 1 m/s 729 mmHg 53%
    23:00 +28°C° 0 mm 2 m/s 729 mmHg 59%

    Demain, 14 Décembre, Jeudi

    Heure Température Précipitation Vent Pression Humidité
    00:00 +28°C° 0 mm 2 m/s 729 mmHg 65%
    01:00 +27°C° 0 mm 2 m/s 729 mmHg 70%
    02:00 +26°C° 0 mm 2 m/s 729 mmHg 76%
    03:00 +26°C° 0 mm 2 m/s 728 mmHg 81%
    04:00 +25°C° 0 mm 1 m/s 728 mmHg 84%
    05:00 +25°C° 0 mm 1 m/s 729 mmHg 87%
    06:00 +24°C° 0 mm 1 m/s 729 mmHg 89%
    07:00 +26°C° 0 mm 1 m/s 729 mmHg 82%
    08:00 +27°C° 0 mm 2 m/s 730 mmHg 75%
    09:00 +29°C° 0 mm 2 m/s 730 mmHg 68%
    10:00 +31°C° 0 mm 2 m/s 730 mmHg 59%
    11:00 +34°C° 0 mm 2 m/s 730 mmHg 50%
    12:00 +36°C° 0 mm 1 m/s 729 mmHg 41%
    13:00 +36°C° 0 mm 1 m/s 729 mmHg 40%
    14:00 +36°C° 0 mm 1 m/s 728 mmHg 39%
    15:00 +36°C° 0 mm 1 m/s 727 mmHg 38%
    16:00 +35°C° 0 mm 1 m/s 727 mmHg 41%
    17:00 +34°C° 0 mm 1 m/s 727 mmHg 43%
    18:00 +33°C° 0 mm 1 m/s 727 mmHg 46%
    19:00 +32°C° 0 mm 2 m/s 728 mmHg 51%
    20:00 +31°C° 0 mm 2 m/s 729 mmHg 55%
    21:00 +30°C° 0 mm 2 m/s 729 mmHg 59%
    22:00 +29°C° 0 mm 3 m/s 729 mmHg 64%
    23:00 +28°C° 0 mm 3 m/s 729 mmHg 69%

    Après-demain, 15 Décembre, Vendredi

    Heure Température Précipitation Vent Pression Humidité
    00:00 +27°C° 0 mm 3 m/s 729 mmHg 74%
    01:00 +27°C° 0 mm 3 m/s 729 mmHg 77%
    02:00 +26°C° 0 mm 3 m/s 728 mmHg 79%
    03:00 +26°C° 0 mm 2 m/s 728 mmHg 82%
    04:00 +26°C° 0 mm 2 m/s 728 mmHg 83%
    05:00 +25°C° 0 mm 2 m/s 729 mmHg 85%
    06:00 +25°C° 0 mm 2 m/s 729 mmHg 86%
    07:00 +26°C° 0 mm 2 m/s 729 mmHg 80%
    08:00 +27°C° 0 mm 2 m/s 730 mmHg 75%
    09:00 +29°C° 0 mm 2 m/s 731 mmHg 69%
    10:00 +30°C° 0,5 mm 2 m/s 730 mmHg 62%
    11:00 +32°C° 0,5 mm 2 m/s 730 mmHg 54%
    12:00 +34°C° 0,5 mm 1 m/s 730 mmHg 47%
    13:00 +34°C° 0,1 mm 1 m/s 729 mmHg 46%
    14:00 +34°C° 0,1 mm 1 m/s 728 mmHg 44%
    15:00 +35°C° 0,1 mm 1 m/s 727 mmHg 43%
    16:00 +34°C° 0 mm 1 m/s 727 mmHg 45%
    17:00 +33°C° 0 mm 1 m/s 727 mmHg 48%
    18:00 +32°C° 0 mm 1 m/s 728 mmHg 50%
    19:00 +31°C° 0 mm 2 m/s 728 mmHg 55%
    20:00 +30°C° 0 mm 2 m/s 729 mmHg 60%
    21:00 +29°C° 0 mm 3 m/s 729 mmHg 65%
    22:00 +28°C° 0,1 mm 3 m/s 729 mmHg 69%
    23:00 +27°C° 0,1 mm 2 m/s 729 mmHg 72%

    16 Décembre, Samedi

    Heure Température Précipitation Vent Pression Humidité
    00:00 +26°C° 0,1 mm 2 m/s 729 mmHg 76%
    01:00 +26°C° 0 mm 2 m/s 729 mmHg 79%
    02:00 +26°C° 0 mm 2 m/s 728 mmHg 81%
    03:00 +25°C° 0 mm 2 m/s 728 mmHg 84%
    04:00 +25°C° 0 mm 1 m/s 728 mmHg 86%
    05:00 +24°C° 0 mm 1 m/s 729 mmHg 88%
    06:00 +24°C° 0 mm 1 m/s 729 mmHg 90%
    07:00 +26°C° 0 mm 2 m/s 730 mmHg 83%
    08:00 +27°C° 0 mm 2 m/s 730 mmHg 77%
    09:00 +28°C° 0 mm 2 m/s 731 mmHg 70%
    10:00 +30°C° 0 mm 2 m/s 730 mmHg 61%
    11:00 +32°C° 0 mm 2 m/s 730 mmHg 53%
    12:00 +36°C° 0 mm 2 m/s 730 mmHg 44%
    13:00 +35°C° 0 mm 1 m/s 729 mmHg 41%
    14:00 +36°C° 0 mm 1 m/s 728 mmHg 38%
    15:00 +34°C° 0 mm 0 m/s 727 mmHg 36%
    16:00 +35°C° 0 mm 1 m/s 727 mmHg 38%
    17:00 +34°C° 0 mm 1 m/s 727 mmHg 40%
    18:00 +33°C° 0 mm 1 m/s 727 mmHg 42%
    19:00 +32°C° 0 mm 1 m/s 728 mmHg 47%
    20:00 +31°C° 0 mm 2 m/s 728 mmHg 51%
    21:00 +30°C° 0 mm 3 m/s 729 mmHg 56%
    22:00 +29°C° 0 mm 2 m/s 729 mmHg 60%
    23:00 +28°C° 0 mm 2 m/s 729 mmHg 65%

    17 Décembre, Dimanche

    Heure Température Précipitation Vent Pression Humidité
    00:00 +27°C° 0 mm 2 m/s 729 mmHg 70%
    01:00 +27°C° 0 mm 2 m/s 728 mmHg 73%
    02:00 +26°C° 0 mm 2 m/s 728 mmHg 77%
    03:00 +25°C° 0 mm 1 m/s 728 mmHg 80%
    04:00 +25°C° 0 mm 1 m/s 728 mmHg 82%
    05:00 +25°C° 0 mm 1 m/s 728 mmHg 85%
    06:00 +24°C° 0 mm 1 m/s 729 mmHg 87%
    07:00 +26°C° 0 mm 2 m/s 729 mmHg 80%
    08:00 +27°C° 0 mm 2 m/s 730 mmHg 73%
    09:00 +29°C° 0 mm 2 m/s 730 mmHg 66%
    10:00 +31°C° 0 mm 2 m/s 730 mmHg 57%
    11:00 +34°C° 0 mm 2 m/s 729 mmHg 48%
    12:00 +36°C° 0 mm 2 m/s 729 mmHg 39%
    13:00 +38°C° 0 mm 2 m/s 728 mmHg 35%
    14:00 +39°C° 0 mm 1 m/s 727 mmHg 31%
    15:00 +40°C° 0 mm 1 m/s 727 mmHg 27%
    16:00 +37°C° 0 mm 1 m/s 727 mmHg 30%
    17:00 +35°C° 0 mm 1 m/s 727 mmHg 32%
    18:00 +34°C° 0 mm 1 m/s 727 mmHg 35%
    19:00 +33°C° 0 mm 1 m/s 727 mmHg 38%
    20:00 +32°C° 0 mm 2 m/s 728 mmHg 41%
    21:00 +31°C° 0 mm 2 m/s 728 mmHg 44%
    22:00 +30°C° 0 mm 2 m/s 728 mmHg 49%
    23:00 +29°C° 0 mm 2 m/s 728 mmHg 54%

    18 Décembre, Lundi

    Heure Température Précipitation Vent Pression Humidité
    00:00 +28°C° 0 mm 2 m/s 728 mmHg 58%
    01:00 +28°C° 0 mm 2 m/s 728 mmHg 65%
    02:00 +27°C° 0 mm 2 m/s 728 mmHg 72%
    03:00 +26°C° 0 mm 2 m/s 727 mmHg 79%
    04:00 +26°C° 0 mm 2 m/s 728 mmHg 82%
    05:00 +25°C° 0 mm 2 m/s 728 mmHg 85%
    06:00 +25°C° 0 mm 2 m/s 728 mmHg 88%
    07:00 +26°C° 0 mm 2 m/s 729 mmHg 83%
    08:00 +27°C° 0 mm 2 m/s 729 mmHg 78%
    09:00 +28°C° 0 mm 2 m/s 730 mmHg 73%
    10:00 +30°C° 0 mm 2 m/s 729 mmHg 67%
    11:00 +31°C° 0 mm 2 m/s 729 mmHg 60%
    12:00 +34°C° 0 mm 3 m/s 729 mmHg 54%
    13:00 +34°C° 0 mm 3 m/s 728 mmHg 50%
    14:00 +35°C° 0 mm 2 m/s 727 mmHg 46%
    15:00 +36°C° 0 mm 2 m/s 726 mmHg 43%
    16:00 +35°C° 0 mm 2 m/s 726 mmHg 46%
    17:00 +34°C° 0 mm 2 m/s 727 mmHg 49%
    18:00 +32°C° 0 mm 2 m/s 727 mmHg 52%
    19:00 +31°C° 0 mm 2 m/s 727 mmHg 56%
    20:00 +30°C° 0 mm 3 m/s 728 mmHg 60%
    21:00 +29°C° 0 mm 3 m/s 728 mmHg 64%
    22:00 +29°C° 0,1 mm 3 m/s 728 mmHg 68%
    23:00 +28°C° 0,1 mm 3 m/s 728 mmHg 72%
    Voir plus